Pardubice, Czech Republic

1:52 PM CET on February 27, 2017 (GMT +0100)
Pardubice

Weather History for LKPD - June, 2013

Change the Weather History Date:

Thursday, June 20, 2013

  Actual Average Record
Temperature  
Mean Temperature 81 °F -  
Max Temperature 91 °F - - ()
Min Temperature 71 °F - - ()
Cooling Degree Days 16    
Growing Degree Days 31 (Base 50)    
Moisture  
Dew Point 68 °F    
Average Humidity 64    
Maximum Humidity 83    
Minimum Humidity 46    
Precipitation  
Precipitation 0.00 in - - ()
Sea Level Pressure  
Sea Level Pressure 29.89 in    
Wind  
Wind Speed 7 mph ()    
Max Wind Speed 12 mph    
Max Gust Speed -    
T = Trace of Precipitation, MM = Missing Value Source: Averaged Metar Reports

Daily Weather History Graph

Daily Weather History Graph

Search for Another Location

Airport or City:

Trip Planner

Search our weather history database for the weather conditions in past years. The results will help you decide how hot, cold, wet, or windy it might be!

Date:

Astronomy

Jun. 20, 2013 Rise Set
Actual Time 4:47 AM CEST 9:09 PM CEST
Civil Twilight 4:02 AM CEST 9:54 PM CEST
Nautical Twilight 2:56 AM CEST 11:00 PM CEST
Astronomical Twilight 1:31 AM CEST 12:26 AM CEST
Moon 5:39 PM CEST (6/20) 2:17 AM CEST (6/20)
Length of Visible Light 17h 51m
Length of Day
16h 22m
Waxing Gibbous, 87% of the Moon is Illuminated
Jun 20
Waxing Gibbous
Jun 23
Full
Jun 30
Last Quarter
Jul 8
New
Jul 16
First Quarter

Hourly Weather History & Observations

Time (CEST) Temp. Heat Index Dew Point Humidity Pressure Visibility Wind Dir Wind Speed Gust Speed Precip Events Conditions
12:00 AM 75.2 °F - 68.0 °F 78% 29.95 in - East 5.8 mph - N/A   Clear
1:00 AM 73.4 °F - 66.2 °F 78% 29.95 in - East 8.1 mph - N/A   Clear
2:00 AM 73.4 °F - 64.4 °F 73% 29.95 in - East 6.9 mph - N/A   Clear
3:00 AM 73.4 °F - 64.4 °F 73% 29.92 in - East 11.5 mph - N/A   Clear
4:00 AM 73.4 °F - 66.2 °F 78% 29.92 in - East 9.2 mph - N/A   Clear
5:00 AM 71.6 °F - 66.2 °F 83% 29.92 in - East 6.9 mph - N/A   Clear
6:00 AM 71.6 °F - 66.2 °F 83% 29.92 in - East 8.1 mph - N/A   Clear
7:00 AM 75.2 °F - 68.0 °F 78% 29.92 in - East 8.1 mph - N/A   Clear
8:00 AM 78.8 °F - 69.8 °F 74% 29.92 in - East 6.9 mph - N/A   Clear
9:00 AM 82.4 °F 86.3 °F 69.8 °F 66% 29.92 in - East 4.6 mph - N/A   Clear
10:00 AM 84.2 °F 89.6 °F 71.6 °F 66% 29.92 in - Variable 2.3 mph - N/A   Clear
10:20 AM 86.0 °F 90.4 °F 69.8 °F 58% 29.92 in - Variable 4.6 mph - N/A   Clear
11:00 AM 87.8 °F 92.6 °F 69.8 °F 55% 29.92 in - South 6.9 mph - N/A   Clear
12:00 PM 89.6 °F 93.4 °F 68.0 °F 49% 29.92 in - SSE 6.9 mph - N/A   Clear
1:00 PM 89.6 °F 94.7 °F 69.8 °F 52% 29.92 in - SSE 5.8 mph - N/A   Clear
2:00 PM 91.4 °F 96.8 °F 69.8 °F 49% 29.89 in - SSE 8.1 mph - N/A   Clear
3:00 PM 91.4 °F 96.8 °F 69.8 °F 49% 29.89 in - ESE 11.5 mph - N/A   Clear
4:00 PM 91.4 °F 95.4 °F 68.0 °F 46% 29.86 in - SE 10.4 mph - N/A   Clear
5:00 PM 91.4 °F 96.8 °F 69.8 °F 49% 29.83 in - SE 11.5 mph - N/A   Clear
6:00 PM 89.6 °F 94.7 °F 69.8 °F 52% 29.83 in - SE 10.4 mph - N/A   Clear
7:00 PM 87.8 °F 93.8 °F 71.6 °F 58% 29.83 in - SE 9.2 mph - N/A   Clear
8:00 PM 86.0 °F 89.4 °F 68.0 °F 55% 29.80 in - ESE 6.9 mph - N/A   Clear
9:00 PM 82.4 °F 85.4 °F 68.0 °F 62% 29.83 in - ESE 5.8 mph - N/A   Clear
10:00 PM 80.6 °F 83.2 °F 68.0 °F 65% 29.83 in - East 8.1 mph - N/A   Clear
11:00 PM 78.8 °F - 68.0 °F 69% 29.80 in - East 6.9 mph - N/A   Clear